Location: Bernadets
(43.3537°N, 0.3167°E)
Time: 03:53:24
(UTC+00:00)

Cosmos 1605 Rocket - Pass Details

Date: 24 October 2021
Orbit: 945 x 1005 km, 82.9° (Epoch: 29 November)

Event Time Altitude Azimuth Distance (km) Brightness Sun altitude
Rises 18:39:31 0° 190° (S) 3,659 7.1 -18.5°
Reaches altitude 10° 18:42:01 10° 192° (SSW) 2,724 6.5 -18.9°
Maximum altitude 18:48:16 78° 278° (W) 1,018 4.1 -20.1°
Drops below altitude 10° 18:54:40 10° 5° (N) 2,779 6.4 -21.2°
Sets 18:57:14 0° 7° (N) 3,737 7.0 -21.7°
